Regional Weather Roundup
Issued by NWS Upton, NY

Current Version | Previous Version | Graphics & Text | Print | Product List | Glossary Off
Versions: 1 2 3 4 5 6 7 8 9 10 11 12 13 14 15 16 17 18 19 20 21 22 23 24 25 26 27 28 29 30 31 32 33 34 35 36 37 38 39 40 41 42 43 44 45 46 47 48 49 50

392
ASUS41 KOKX 282304
RWROKX

REGIONAL WEATHER ROUNDUP
NATIONAL WEATHER SERVICE NEW YORK NY
700 PM EDT THU APR 28 2016

NOTE: "FAIR" INDICATES FEW OR NO CLOUDS BELOW 12,000 FEET WITH NO
SIGNIFICANT WEATHER AND/OR OBSTRUCTIONS TO VISIBILITY.

NYZ071-072-176-178-NJZ106-104-290000-
NEW YORK CITY METRO AREA


CITY           SKY/WX    TMP DP  RH WIND       PRES   REMARKS
CENTRAL PARK   CLOUDY    51  31  46 S9        30.07R
LAGUARDIA APRT LGT RAIN  51  30  44 S12       30.04R
KENNEDY INTL   LGT RAIN  50  30  46 S10       30.06S
NEWARK/LIBERTY LGT RAIN  49  35  58 S7        30.04S
BRNX BOT. GARD   N/A     50  32  50 S12       30.05R
TETERBORO      DRIZZLE   51  31  46 S9        30.03R
$$

NYZ177-179-078>081-290000-
LONG ISLAND NEW YORK

CITY           SKY/WX    TMP DP  RH WIND       PRES   REMARKS
FARMINGDALE    CLOUDY    50  31  48 S6        30.05R
ISLIP          CLOUDY    50  32  50 S6        30.05R
SHIRLEY        CLOUDY    49  33  54 S5        30.05S
RIVERHEAD        N/A     48  36  61 S2        30.04S
WESTHAMPTON    CLOUDY    46  34  62 S5        30.06S
EAST HAMPTON   FAIR      47  34  60 S6        30.05S
MONTAUK POINT    N/A     48  37  65 S6        30.07S
$$

NYZ052-065-067-290000-
HUDSON VALLEY

CITY           SKY/WX    TMP DP  RH WIND       PRES   REMARKS
WHITE PLAINS   CLOUDY    51  32  48 S5        30.02R
NEWBURGH       CLOUDY    55  27  33 CALM      30.01
MONTGOMERY     CLOUDY    55  32  41 MISG      30.00R
POUGHKEEPSIE   CLOUDY    59  19  21 CALM      30.00R
ALBANY         CLOUDY    56  21  25 CALM      30.01R
$$

NJZ001-105-106-008-010-013-015-019>022-104-290000-
NEW JERSEY

CITY           SKY/WX    TMP DP  RH WIND       PRES   REMARKS
NEWARK/LIBERTY LGT RAIN  49  35  58 S7        30.04S
TETERBORO      DRIZZLE   51  31  46 S9        30.03R
CALDWELL       LGT RAIN  51  34  52 VRB6      30.04R
MORRISTOWN     CLOUDY    48  39  71 W7        30.04R
SOMERVILLE     LGT RAIN  46  40  79 CALM      30.03F
SUSSEX         LGT RAIN  49  39  68 CALM      30.03R
ANDOVER          N/A     50  34  54 SW7       30.02R
TRENTON        RAIN      42  40  92 SE5       30.05R FOG
MILLVILLE      CLOUDY    48  41  76 NE9       30.02R
ATLANTIC CITY  CLOUDY    47  43  86 E7        30.02S
WRIGHTSTOWN    LGT RAIN  43  41  93 E9        30.02S FOG
TOMS RIVER     CLOUDY    45  34  65 E6        30.05R
BELMAR         RAIN      44  41  89 SE7       30.05S FOG
$$

PAZ047>061-062-071-290000-
EASTERN PENNSYLVANIA

CITY           SKY/WX    TMP DP  RH WIND       PRES   REMARKS
PHILADELPHIA   CLOUDY    47  37  68 E7        30.05R
ALLENTOWN      LGT RAIN  46  42  86 SW3       30.03F
SCRANTON       CLOUDY    46  42  86 S5        30.00F
$$

CTZ002-004>006-009-010-012-RIZ004-006-007-MAZ004-011-015-290000-
SOUTHERN NEW ENGLAND
 IN CT

CITY           SKY/WX    TMP DP  RH WIND       PRES   REMARKS
BRADLEY INTL   CLOUDY    53  31  42 S15       30.00R
HARTFORD       CLOUDY    53  35  50 S8        30.03R
DANBURY        CLOUDY    53  33  46 S5        30.03R
WTRBRY/OXFORD  CLOUDY    50  34  53 SW9       30.04S
BRIDGEPORT     MOCLDY    53  36  52 S6        30.04S
MERIDEN        CLOUDY    52  35  52 S9        30.03S
NEW HAVEN      CLOUDY    50  37  61 SE8       30.05R
CHESTER        FAIR      48  36  61 S6        30.04S
GROTON         CLOUDY    47  41  80 S8        30.05S
WILLIMANTIC    PTCLDY    51  31  46 S6        30.04R

 IN RI

CITY           SKY/WX    TMP DP  RH WIND       PRES   REMARKS
PROVIDENCE     CLOUDY    48  33  56 S10       30.06S
BLOCK ISLAND   CLOUDY    46  35  65 S9        30.07R
WESTERLY       CLOUDY    48  35  60 S8        30.06S

 IN MA

CITY           SKY/WX    TMP DP  RH WIND       PRES   REMARKS
BOSTON         CLOUDY    50  31  48 SE13      30.04S
WORCESTER      CLOUDY    50  27  40 S16       30.00R
WESTFIELD      PTCLDY    55  24  30 S9        29.99R
PROVINCETOWN   CLOUDY    46  32  58 S9        30.08R
NANTUCKET      CLOUDY    47  33  58 SE13      30.07F
$$

ANZ330-335-338-340-345-350-353-355-290000-
COASTAL MARINE OBSERVATIONS


STATION/POSITION TIME  SKY/WX   TEMP    WIND        PRES    VSBY  WAVE
                                AIR SEA DIR/SP/G                  HT/PER
                 (UTC)          (F)     (DEG/KT/KT) (MB)    (MI)  (FT/S)
NY HARB ENTRANCE 2150            49 51  140/ 12/ 12 1016.8          3/ 4
20S FIRE ISLAND  2150            47 49  110/ 10/ 12 1017.0          3/ 4
GREAT SOUTH BAY  2230            49 58  150/  8/ 10   N/A
23 SSW MONTAUK P 2250            47 47  140/ 10/ 12 1016.9          3/ 4
15 E BARNEGAT LI 2222               51                N/A           3/ 5
HUDSON CANYON    2150            49 49              1016.1          4/ 6
KINGS POINT      2200            52 53              1016.7
EXECUTION ROCKS  NOT AVBL
CENTRAL LI SOUND 2200            49     160/ 10/ 10   N/A           1/ 2
EASTERN LI SOUND 2200            48 47  180/  8/ 10   N/A
ROBBINS REEF     2200            49                 1016.5
$$


>>>>>>>>>>>>>>>>>>>>>>>>>>>> KEY <<<<<<<<<<<<<<<<<<<<<<<<<<<
>                                                          <
>     SKY/WX - SKY CONDITION/PRESENT WEATHER               <
>     TMP    - TEMPERATURE IN FAHRENHEIT                   <
>     DP     - DEWPOINT IN FAHRENHEIT                      <
>     RH     - RELATIVE HUMIDITY IN PERCENT                <
>     WIND   - DIRECTION AND SPEED IN MPH                  <
>     PRES   - MEAN SEA LEVEL PRESSURE IN INCHES OF HG     <
>     WCI    - WIND CHILL INDEX                            <
>     VSB    - VISIBILITY IN MILES                         <
>     HX     - HEAT INDEX                                  <
>     TC     - TEMPERATURE IN CELSIUS                      <
>     VRB    - VARIABLE WIND DIRECTION                     <
>                                                          <
>>>>>>>>>>>>>>>>>>>>>>>>>>>> KEY <<<<<<<<<<<<<<<<<<<<<<<<<<<






USA.gov is the U.S. government's official web portal to all federal, state and local government web resources and services.